EJU318 EDDS-LIPZ

Flight info

Callsign EJU318
Flight time 0h 49m
Altitude 31000
Route ROTWE Y126 TUBLO N850 NATOR DCT TRA DCT ARGAX DCT RESIA DCT ATPED P131 ADOSA L612 ALBET
Aircraft A20N/M-SDE2E3FGHIRWXY/LB1

Departure

Time 2026-05-07 20:38
Airport Stuttgart Airport (EDDS)

Arrival

Time 2026-05-07 21:27
Airport Venice Marco Polo Airport (LIPZ)
Time Latitude Longitude Altitude Speed Heading
2026-05-07 19:41 48.68930 9.19652 1289 ft 0 kts 343°
2026-05-07 20:25 48.68909 9.19661 1290 ft 4 kts 349°
2026-05-07 20:25 48.68882 9.19665 1288 ft 4 kts
2026-05-07 20:25 48.68859 9.19653 1290 ft 4 kts 56°
2026-05-07 20:25 48.68854 9.19637 1289 ft 1 kts 73°
2026-05-07 20:26 48.68853 9.19636 1289 ft 0 kts 73°
2026-05-07 20:28 48.68854 9.19638 1289 ft 1 kts 73°
2026-05-07 20:28 48.68860 9.19670 1287 ft 5 kts 73°
2026-05-07 20:29 48.68874 9.19740 1288 ft 9 kts 73°
2026-05-07 20:29 48.68884 9.19839 1285 ft 8 kts 104°
2026-05-07 20:29 48.68835 9.19900 1287 ft 10 kts 129°
2026-05-07 20:29 48.68834 9.20016 1289 ft 13 kts 77°
2026-05-07 20:30 48.68861 9.20160 1288 ft 16 kts 74°
2026-05-07 20:30 48.68892 9.20330 1289 ft 18 kts 74°
2026-05-07 20:30 48.68931 9.20519 1286 ft 20 kts 73°
2026-05-07 20:30 48.68969 9.20732 1286 ft 22 kts 73°
2026-05-07 20:31 48.69014 9.20962 1286 ft 24 kts 74°
2026-05-07 20:31 48.69060 9.21209 1285 ft 25 kts 73°
2026-05-07 20:31 48.69110 9.21469 1288 ft 26 kts 74°
2026-05-07 20:31 48.69162 9.21742 1287 ft 28 kts 75°
2026-05-07 20:32 48.69216 9.22027 1288 ft 29 kts 73°
2026-05-07 20:32 48.69271 9.22321 1285 ft 29 kts 74°
2026-05-07 20:32 48.69329 9.22623 1286 ft 30 kts 73°
2026-05-07 20:32 48.69386 9.22932 1287 ft 31 kts 76°
2026-05-07 20:33 48.69446 9.23244 1285 ft 31 kts 74°
2026-05-07 20:33 48.69504 9.23547 1288 ft 30 kts 73°
2026-05-07 20:33 48.69563 9.23855 1286 ft 31 kts 73°
2026-05-07 20:33 48.69604 9.24070 1286 ft 14 kts 74°
2026-05-07 20:34 48.69586 9.24224 1286 ft 17 kts 115°
2026-05-07 20:34 48.69513 9.24307 1286 ft 14 kts 164°
2026-05-07 20:34 48.69489 9.24318 1287 ft 0 kts 163°
2026-05-07 20:36 48.69488 9.24318 1287 ft 1 kts 164°
2026-05-07 20:37 48.69433 9.24311 1286 ft 15 kts 199°
2026-05-07 20:37 48.69356 9.24138 1287 ft 24 kts 254°
2026-05-07 20:37 48.69276 9.23706 1289 ft 75 kts 253°
2026-05-07 20:37 48.69151 9.23048 1285 ft 116 kts 254°
2026-05-07 20:38 48.68888 9.21625 1350 ft 156 kts 255°
2026-05-07 20:38 48.68649 9.20200 2156 ft 131 kts 257°
2026-05-07 20:38 48.68441 9.18766 2463 ft 154 kts 257°
2026-05-07 20:38 48.68179 9.17149 2957 ft 160 kts 255°
2026-05-07 20:39 48.67859 9.15482 3338 ft 177 kts 253°
2026-05-07 20:39 48.67479 9.13602 3724 ft 198 kts 252°
2026-05-07 20:39 48.67051 9.11479 4181 ft 221 kts 253°
2026-05-07 20:39 48.66594 9.09172 4836 ft 242 kts 253°
2026-05-07 20:40 48.66090 9.06609 5568 ft 260 kts 253°
2026-05-07 20:40 48.65570 9.03949 6551 ft 266 kts 253°
2026-05-07 20:40 48.65046 9.01263 7651 ft 266 kts 253°
2026-05-07 20:40 48.64521 8.98578 8773 ft 267 kts 253°
2026-05-07 20:41 48.63991 8.95872 9888 ft 269 kts 253°
2026-05-07 20:41 48.63460 8.93165 10683 ft 281 kts 253°
2026-05-07 20:41 48.62876 8.90201 11079 ft 306 kts 253°
2026-05-07 20:41 48.62187 8.87037 11523 ft 325 kts 247°
2026-05-07 20:42 48.61123 8.83982 12378 ft 331 kts 237°
2026-05-07 20:42 48.59690 8.81216 13232 ft 338 kts 228°
2026-05-07 20:42 48.58075 8.78578 14056 ft 344 kts 228°
2026-05-07 20:42 48.56418 8.75955 14892 ft 347 kts 221°
2026-05-07 20:43 48.54338 8.74071 15711 ft 353 kts 201°
2026-05-07 20:43 48.51956 8.73055 16510 ft 358 kts 196°
2026-05-07 20:43 48.49524 8.72178 17308 ft 362 kts 195°
2026-05-07 20:43 48.47056 8.71320 18092 ft 366 kts 195°
2026-05-07 20:44 48.44564 8.70449 18805 ft 370 kts 195°
2026-05-07 20:44 48.42043 8.69559 19454 ft 374 kts 195°
2026-05-07 20:44 48.39495 8.68651 20104 ft 378 kts 195°
2026-05-07 20:44 48.36924 8.67732 20754 ft 382 kts 195°
2026-05-07 20:45 48.34321 8.66799 21399 ft 386 kts 195°
2026-05-07 20:45 48.31692 8.65858 22035 ft 390 kts 195°
2026-05-07 20:45 48.29069 8.64921 22677 ft 394 kts 195°
2026-05-07 20:45 48.26386 8.63963 23298 ft 398 kts 195°
2026-05-07 20:46 48.23671 8.62995 23869 ft 402 kts 195°
2026-05-07 20:46 48.20935 8.62021 24415 ft 405 kts 195°
2026-05-07 20:46 48.18187 8.61044 24951 ft 408 kts 195°
2026-05-07 20:46 48.15412 8.60058 25461 ft 411 kts 195°
2026-05-07 20:47 48.12617 8.59065 25971 ft 414 kts 195°
2026-05-07 20:47 48.09797 8.58066 26477 ft 416 kts 196°
2026-05-07 20:47 48.06974 8.57066 26970 ft 419 kts 196°
2026-05-07 20:47 48.04125 8.56058 27437 ft 422 kts 196°
2026-05-07 20:48 48.01249 8.55041 27907 ft 425 kts 196°
2026-05-07 20:48 47.98356 8.54019 28366 ft 428 kts 196°
2026-05-07 20:48 47.95451 8.52995 28797 ft 431 kts 196°
2026-05-07 20:48 47.92518 8.51962 29214 ft 433 kts 196°
2026-05-07 20:49 47.89573 8.50927 29624 ft 436 kts 196°
2026-05-07 20:49 47.86618 8.49889 30045 ft 438 kts 196°
2026-05-07 20:49 47.83641 8.48844 30394 ft 440 kts 196°
2026-05-07 20:49 47.80687 8.47808 30745 ft 442 kts 196°
2026-05-07 20:50 47.77681 8.46755 31012 ft 444 kts 197°
2026-05-07 20:50 47.71505 8.45867 31061 ft 453 kts 176°
2026-05-07 20:50 47.68414 8.46874 31053 ft 460 kts 165°
2026-05-07 20:51 47.65485 8.48856 31052 ft 467 kts 152°
2026-05-07 20:51 47.62863 8.51726 31053 ft 472 kts 141°
2026-05-07 20:51 47.60446 8.55032 31050 ft 473 kts 139°
2026-05-07 20:52 47.55673 8.61745 31051 ft 473 kts 140°
2026-05-07 20:52 47.50858 8.68366 31048 ft 472 kts 140°
2026-05-07 20:53 47.46047 8.74893 31030 ft 472 kts 141°
2026-05-07 20:53 47.41187 8.81457 31049 ft 477 kts 141°
2026-05-07 20:54 47.36289 8.88054 31045 ft 476 kts 141°
2026-05-07 20:54 47.31395 8.94633 31048 ft 476 kts 141°
2026-05-07 20:55 47.26502 9.01193 31044 ft 476 kts 141°
2026-05-07 20:55 47.21602 9.07744 31043 ft 476 kts 141°
2026-05-07 20:56 47.16685 9.14301 31043 ft 477 kts 141°
2026-05-07 20:56 47.11755 9.20856 31048 ft 478 kts 141°
2026-05-07 20:57 47.06827 9.27393 31046 ft 478 kts 141°
2026-05-07 20:57 47.01893 9.33921 31044 ft 477 kts 142°
2026-05-07 20:58 46.96960 9.40425 31053 ft 478 kts 142°
2026-05-07 20:58 46.92022 9.46924 31048 ft 478 kts 142°
2026-05-07 20:59 46.87112 9.53368 31050 ft 477 kts 142°
2026-05-07 20:59 46.82164 9.59844 31047 ft 478 kts 142°
2026-05-07 21:00 46.77202 9.66322 31061 ft 478 kts 142°
2026-05-07 21:00 46.72254 9.72768 31065 ft 477 kts 142°
2026-05-07 21:01 46.67290 9.79216 31068 ft 478 kts 142°
2026-05-07 21:01 46.62313 9.85663 31075 ft 479 kts 142°
2026-05-07 21:02 46.57325 9.92110 31073 ft 479 kts 142°
2026-05-07 21:02 46.52339 9.98540 31063 ft 479 kts 143°
2026-05-07 21:03 46.47390 10.04903 31070 ft 478 kts 143°
2026-05-07 21:03 46.42267 10.11117 31055 ft 477 kts 145°
2026-05-07 21:04 46.37160 10.17163 31041 ft 477 kts 145°
2026-05-07 21:04 46.32032 10.23266 31045 ft 477 kts 145°
2026-05-07 21:05 46.26912 10.29373 31055 ft 478 kts 145°
2026-05-07 21:05 46.21767 10.35493 31054 ft 478 kts 145°
2026-05-07 21:06 46.16617 10.41603 31072 ft 480 kts 145°
2026-05-07 21:06 46.11454 10.47715 31071 ft 480 kts 146°
2026-05-07 21:07 46.06288 10.53810 30969 ft 479 kts 146°
2026-05-07 21:07 46.03715 10.56842 30730 ft 477 kts 146°
2026-05-07 21:07 46.01185 10.59817 30477 ft 476 kts 146°
2026-05-07 21:07 45.98626 10.62824 30236 ft 474 kts 146°
2026-05-07 21:08 45.96068 10.65823 29960 ft 472 kts 146°
2026-05-07 21:08 45.93529 10.68795 29683 ft 470 kts 146°
2026-05-07 21:08 45.91001 10.71756 29076 ft 468 kts 146°
2026-05-07 21:08 45.88475 10.74707 28367 ft 466 kts 145°
2026-05-07 21:09 45.85964 10.77637 27650 ft 463 kts 145°
2026-05-07 21:09 45.83475 10.80537 26954 ft 458 kts 145°
2026-05-07 21:09 45.81008 10.83406 26240 ft 455 kts 145°
2026-05-07 21:09 45.78561 10.86254 25549 ft 452 kts 144°
2026-05-07 21:10 45.76126 10.89084 24801 ft 449 kts 144°
2026-05-07 21:10 45.73736 10.91857 24106 ft 446 kts 144°
2026-05-07 21:10 45.71333 10.94644 23373 ft 444 kts 144°
2026-05-07 21:10 45.68953 10.97403 22663 ft 434 kts 144°
2026-05-07 21:11 45.66647 11.00091 21984 ft 421 kts 142°
2026-05-07 21:11 45.64578 11.02979 21302 ft 411 kts 134°
2026-05-07 21:11 45.61319 11.09548 19995 ft 404 kts 124°
2026-05-07 21:12 45.59810 11.12927 19325 ft 403 kts 124°
2026-05-07 21:12 45.58298 11.16296 18638 ft 401 kts 124°
2026-05-07 21:12 45.56792 11.19648 17909 ft 401 kts 124°
2026-05-07 21:12 45.55293 11.22980 17245 ft 397 kts 124°
2026-05-07 21:13 45.53808 11.26280 16573 ft 394 kts 124°
2026-05-07 21:13 45.52331 11.29556 15910 ft 391 kts 124°
2026-05-07 21:13 45.50861 11.32811 15243 ft 389 kts 124°
2026-05-07 21:13 45.49398 11.36049 14568 ft 387 kts 124°
2026-05-07 21:14 45.47939 11.39272 13906 ft 382 kts 124°
2026-05-07 21:14 45.46522 11.42401 13234 ft 371 kts 124°
2026-05-07 21:14 45.45146 11.45438 12610 ft 359 kts 124°
2026-05-07 21:14 45.43808 11.48385 11994 ft 349 kts 124°
2026-05-07 21:15 45.42597 11.51335 11392 ft 341 kts 116°
2026-05-07 21:15 45.41708 11.54431 10818 ft 333 kts 111°
2026-05-07 21:15 45.40907 11.57481 10265 ft 325 kts 111°
2026-05-07 21:15 45.40139 11.60378 10045 ft 307 kts 111°
2026-05-07 21:16 45.39394 11.63173 9566 ft 299 kts 111°
2026-05-07 21:16 45.38668 11.65892 9188 ft 288 kts 111°
2026-05-07 21:16 45.37948 11.68577 9049 ft 293 kts 111°
2026-05-07 21:16 45.37220 11.71291 8919 ft 292 kts 111°
2026-05-07 21:17 45.36496 11.73986 8585 ft 292 kts 111°
2026-05-07 21:17 45.35773 11.76681 8156 ft 292 kts 111°
2026-05-07 21:17 45.35049 11.79374 7729 ft 291 kts 111°
2026-05-07 21:17 45.34330 11.82045 7425 ft 285 kts 111°
2026-05-07 21:18 45.33636 11.84622 7309 ft 273 kts 111°
2026-05-07 21:18 45.32973 11.87081 7207 ft 260 kts 111°
2026-05-07 21:18 45.32342 11.89422 7108 ft 247 kts 111°
2026-05-07 21:18 45.31740 11.91651 6922 ft 238 kts 111°
2026-05-07 21:19 45.31146 11.93846 6505 ft 240 kts 111°
2026-05-07 21:19 45.30539 11.96086 5958 ft 247 kts 111°
2026-05-07 21:19 45.29916 11.98382 5430 ft 250 kts 111°
2026-05-07 21:19 45.29289 12.00691 4987 ft 251 kts 111°
2026-05-07 21:20 45.28673 12.02988 4635 ft 246 kts 107°
2026-05-07 21:20 45.28520 12.05279 4518 ft 231 kts 78°
2026-05-07 21:20 45.28864 12.06694 4449 ft 220 kts 60°
2026-05-07 21:20 45.30042 12.08883 4321 ft 204 kts 44°
2026-05-07 21:21 45.31046 12.10231 4225 ft 193 kts 41°
2026-05-07 21:21 45.32017 12.11463 4040 ft 184 kts 41°
2026-05-07 21:21 45.32657 12.12280 3860 ft 181 kts 41°
2026-05-07 21:21 45.33852 12.13808 3626 ft 170 kts 42°
2026-05-07 21:22 45.34443 12.14564 3457 ft 169 kts 42°
2026-05-07 21:22 45.35314 12.15678 3191 ft 168 kts 43°
2026-05-07 21:22 45.36162 12.16762 3035 ft 165 kts 43°
2026-05-07 21:22 45.37042 12.17891 3022 ft 169 kts 43°
2026-05-07 21:23 45.37902 12.18991 3045 ft 168 kts 43°
2026-05-07 21:23 45.38773 12.20107 2946 ft 171 kts 43°
2026-05-07 21:23 45.39664 12.21250 2645 ft 172 kts 43°
2026-05-07 21:23 45.40546 12.22381 2399 ft 169 kts 43°
2026-05-07 21:24 45.41391 12.23463 2171 ft 157 kts 44°
2026-05-07 21:24 45.42175 12.24468 1964 ft 146 kts 44°
2026-05-07 21:24 45.42895 12.25393 1775 ft 134 kts 44°
2026-05-07 21:24 45.43563 12.26250 1601 ft 127 kts 45°
2026-05-07 21:25 45.44224 12.27099 1431 ft 127 kts 44°
2026-05-07 21:25 45.44866 12.27924 1262 ft 125 kts 45°
2026-05-07 21:25 45.45518 12.28762 1093 ft 126 kts 44°
2026-05-07 21:25 45.46161 12.29587 936 ft 124 kts 44°
2026-05-07 21:26 45.46797 12.30404 753 ft 121 kts 44°
2026-05-07 21:26 45.47427 12.31215 585 ft 124 kts 43°
2026-05-07 21:26 45.48057 12.32037 333 ft 121 kts 43°
2026-05-07 21:26 45.48665 12.32836 198 ft 120 kts 43°
2026-05-07 21:27 45.49286 12.33635 101 ft 122 kts 43°
2026-05-07 21:27 45.49892 12.34416 13 ft 110 kts 46°
2026-05-07 21:27 45.50351 12.34996 10 ft 61 kts 40°
2026-05-07 21:27 45.50534 12.35218 10 ft 21 kts 40°
2026-05-07 21:28 45.50655 12.35350 13 ft 22 kts 25°
2026-05-07 21:28 45.50803 12.35422 15 ft 24 kts 12°
2026-05-07 21:28 45.50831 12.35431 16 ft 0 kts 12°
2026-05-07 21:29 45.50848 12.35436 15 ft 4 kts 12°
2026-05-07 21:29 45.50889 12.35448 16 ft 7 kts 12°
2026-05-07 21:30 45.50948 12.35449 17 ft 10 kts 340°
2026-05-07 21:30 45.50977 12.35365 19 ft 11 kts 267°
2026-05-07 21:30 45.50961 12.35240 20 ft 15 kts 249°
2026-05-07 21:30 45.50886 12.35115 19 ft 18 kts 221°
2026-05-07 21:31 45.50778 12.34978 15 ft 23 kts 223°
2026-05-07 21:31 45.50747 12.34936 15 ft 3 kts 223°
2026-05-07 21:31 45.50720 12.34900 15 ft 7 kts 223°
2026-05-07 21:31 45.50669 12.34836 14 ft 12 kts 221°
2026-05-07 21:32 45.50632 12.34760 14 ft 8 kts 268°
2026-05-07 21:32 45.50671 12.34677 14 ft 13 kts 313°
2026-05-07 21:32 45.50687 12.34653 12 ft 4 kts 313°
2026-05-07 21:32 45.50704 12.34600 12 ft 0 kts 272°
2026-05-07 21:33 45.50701 12.34581 12 ft 3 kts 253°
2026-05-07 21:33 45.50685 12.34552 14 ft 0 kts 226°
2026-05-07 21:33 45.50677 12.34542 13 ft 2 kts 225°
2026-05-07 21:33 45.50675 12.34538 12 ft 0 kts 225°